| time (UTC) | temp F | wind direction | speed MPH | gust MPH | rain 1hr in | rain 24hr in | rain mn in | humidity % | barometer mb |
| 20260503172735 | 62 | 221 | 2.0 | 3.0 | 0.00 | 0.00 | 0.00 | 43 | 1019.7 |
| 20260503172232 | 61 | 247 | 1.0 | 2.0 | 0.00 | 0.00 | 0.00 | 40 | 1019.4 |
| 20260503171729 | 61 | 239 | 4.0 | 4.0 | 0.00 | 0.00 | 0.00 | 43 | 1019.5 |
| 20260503171226 | 61 | 244 | 3.0 | 3.0 | 0.00 | 0.00 | 0.00 | 43 | 1019.4 |
| 20260503170723 | 61 | 243 | 2.0 | 2.0 | 0.00 | 0.00 | 0.00 | 39 | 1019.5 |
| 20260503170220 | 61 | 229 | 4.0 | 4.0 | 0.00 | 0.00 | 0.00 | 40 | 1019.7 |
| 20260503160142 | 59 | 218 | 2.0 | 3.0 | 0.00 | 0.00 | 0.00 | 41 | 1020.4 |
| 20260503150612 | 57 | 224 | 4.0 | 6.0 | 0.00 | 0.00 | 0.00 | 41 | 1021.1 |
| 20260503150108 | 57 | 219 | 2.0 | 3.0 | 0.00 | 0.00 | 0.00 | 43 | 1021.0 |
| 20260503130955 | 48 | 236 | 3.0 | 3.0 | 0.00 | 0.00 | 0.00 | 62 | 1021.3 |
| 20260503130453 | 47 | 228 | 1.0 | 2.0 | 0.00 | 0.00 | 0.00 | 62 | 1021.4 |
| 20260503110337 | 32 | 295 | 0.0 | 0.0 | 0.00 | 0.00 | 0.00 | 97 | 1020.7 |
| 20260503090223 | 32 | 295 | 0.0 | 0.0 | 0.00 | 0.00 | 0.00 | 96 | 1020.5 |
| 20260503081151 | 33 | 295 | 0.0 | 0.0 | 0.00 | 0.00 | 0.00 | 95 | 1020.3 |
| 20260503080646 | 33 | 295 | 0.0 | 0.0 | 0.00 | 0.00 | 0.00 | 95 | 1020.4 |
| 20260503080144 | 33 | 295 | 0.0 | 0.0 | 0.00 | 0.00 | 0.00 | 95 | 1020.3 |
| 20260503072621 | 33 | 295 | 0.0 | 0.0 | 0.00 | 0.00 | 0.00 | 95 | 1020.2 |
| 20260503072118 | 33 | 295 | 0.0 | 0.0 | 0.00 | 0.00 | 0.00 | 95 | 1020.1 |
| 20260503071614 | 34 | 295 | 0.0 | 0.0 | 0.00 | 0.00 | 0.00 | 95 | 1020.2 |
| 20260503071111 | 34 | 295 | 0.0 | 0.0 | 0.00 | 0.00 | 0.00 | 95 | 1020.3 |
| 20260503070608 | 34 | 295 | 0.0 | 0.0 | 0.00 | 0.00 | 0.00 | 95 | 1020.5 |
| 20260503070106 | 34 | 295 | 0.0 | 0.0 | 0.00 | 0.00 | 0.00 | 95 | 1020.3 |
| 20260503055031 | 35 | 295 | 0.0 | 0.0 | 0.00 | 0.00 | 0.00 | 94 | 1020.6 |
| 20260503054528 | 35 | 295 | 0.0 | 0.0 | 0.00 | 0.00 | 0.00 | 93 | 1020.5 |
| 20260503054025 | 35 | 295 | 0.0 | 0.0 | 0.00 | 0.00 | 0.00 | 93 | 1020.5 |
| 20260503053523 | 35 | 295 | 0.0 | 0.0 | 0.00 | 0.00 | 0.00 | 93 | 1020.6 |
| 20260503053020 | 35 | 295 | 0.0 | 0.0 | 0.00 | 0.00 | 0.00 | 93 | 1020.6 |
| 20260503052517 | 35 | 295 | 0.0 | 0.0 | 0.00 | 0.00 | 0.00 | 93 | 1020.7 |
| 20260503052013 | 35 | 295 | 0.0 | 0.0 | 0.00 | 0.00 | 0.00 | 93 | 1020.8 |
| 20260503051509 | 36 | 295 | 0.0 | 0.0 | 0.00 | 0.00 | 0.00 | 93 | 1020.7 |
| 20260503051007 | 36 | 295 | 0.0 | 0.0 | 0.00 | 0.00 | 0.00 | 92 | 1020.7 |
| 20260503050502 | 36 | 295 | 0.0 | 0.0 | 0.00 | 0.00 | 0.00 | 92 | 1020.7 |
| 20260503050000 | 36 | 295 | 0.0 | 0.0 | 0.00 | 0.00 | 0.00 | 92 | 1020.7 |
| 20260503045457 | 36 | 295 | 0.0 | 0.0 | 0.00 | 0.00 | 0.00 | 92 | 1020.7 |
| 20260503044954 | 36 | 295 | 0.0 | 0.0 | 0.00 | 0.00 | 0.00 | 92 | 1020.7 |
| 20260503044450 | 37 | 295 | 0.0 | 0.0 | 0.00 | 0.00 | 0.00 | 91 | 1020.7 |
| 20260503043948 | 37 | 295 | 0.0 | 0.0 | 0.00 | 0.00 | 0.00 | 91 | 1020.7 |
| 20260503043444 | 37 | 295 | 0.0 | 0.0 | 0.00 | 0.00 | 0.00 | 91 | 1020.5 |
| 20260503042941 | 37 | 295 | 0.0 | 0.0 | 0.00 | 0.00 | 0.00 | 90 | 1020.6 |
| 20260503042437 | 37 | 295 | 0.0 | 0.0 | 0.00 | 0.00 | 0.00 | 90 | 1020.4 |
| 20260503041934 | 37 | 295 | 0.0 | 0.0 | 0.00 | 0.00 | 0.00 | 90 | 1020.5 |
| 20260503041431 | 37 | 295 | 0.0 | 0.0 | 0.00 | 0.00 | 0.00 | 90 | 1020.5 |
| 20260503040928 | 37 | 295 | 0.0 | 0.0 | 0.00 | 0.00 | 0.00 | 89 | 1020.4 |
| 20260503040426 | 37 | 295 | 0.0 | 0.0 | 0.00 | 0.00 | 0.00 | 89 | 1020.3 |
| 20260503035923 | 37 | 295 | 0.0 | 0.0 | 0.00 | 0.00 | 0.00 | 88 | 1020.5 |
| 20260503035420 | 38 | 295 | 0.0 | 0.0 | 0.00 | 0.00 | 0.00 | 88 | 1020.4 |
| 20260503034917 | 38 | 295 | 0.0 | 0.0 | 0.00 | 0.00 | 0.00 | 88 | 1020.3 |
| 20260503034415 | 38 | 295 | 0.0 | 0.0 | 0.00 | 0.00 | 0.00 | 87 | 1020.5 |
| 20260503033911 | 38 | 295 | 0.0 | 0.0 | 0.00 | 0.00 | 0.00 | 86 | 1020.6 |
| 20260503033409 | 39 | 295 | 0.0 | 0.0 | 0.00 | 0.00 | 0.00 | 86 | 1020.6 |
| 20260503032907 | 39 | 295 | 0.0 | 0.0 | 0.00 | 0.00 | 0.00 | 86 | 1020.5 |
| 20260503032405 | 39 | 295 | 0.0 | 0.0 | 0.00 | 0.00 | 0.00 | 85 | 1020.3 |
| 20260503031903 | 39 | 295 | 0.0 | 0.0 | 0.00 | 0.00 | 0.00 | 84 | 1020.3 |
| 20260503031400 | 40 | 295 | 0.0 | 0.0 | 0.00 | 0.00 | 0.00 | 85 | 1020.4 |
| 20260503030857 | 40 | 295 | 0.0 | 0.0 | 0.00 | 0.00 | 0.00 | 84 | 1020.5 |
| 20260503030354 | 40 | 295 | 0.0 | 0.0 | 0.00 | 0.00 | 0.00 | 83 | 1020.5 |
| 20260503025850 | 41 | 295 | 0.0 | 0.0 | 0.00 | 0.00 | 0.00 | 81 | 1020.6 |
| 20260503025347 | 41 | 295 | 0.0 | 0.0 | 0.00 | 0.00 | 0.00 | 79 | 1020.6 |
| 20260503024844 | 41 | 295 | 0.0 | 0.0 | 0.00 | 0.00 | 0.00 | 78 | 1020.6 |
| 20260503024341 | 41 | 295 | 0.0 | 0.0 | 0.00 | 0.00 | 0.00 | 77 | 1020.4 |
| 20260503023838 | 42 | 295 | 0.0 | 0.0 | 0.00 | 0.00 | 0.00 | 77 | 1020.3 |
| 20260503023335 | 42 | 295 | 0.0 | 0.0 | 0.00 | 0.00 | 0.00 | 76 | 1020.3 |
| 20260503022832 | 42 | 295 | 0.0 | 0.0 | 0.00 | 0.00 | 0.00 | 75 | 1020.3 |
| 20260503022332 | 42 | 295 | 0.0 | 0.0 | 0.00 | 0.00 | 0.00 | 73 | 1020.4 |
| 20260503021828 | 43 | 295 | 0.0 | 0.0 | 0.00 | 0.00 | 0.00 | 73 | 1020.3 |
| 20260503021325 | 43 | 295 | 0.0 | 0.0 | 0.00 | 0.00 | 0.00 | 73 | 1020.0 |
| 20260503020822 | 43 | 295 | 0.0 | 0.0 | 0.00 | 0.00 | 0.00 | 71 | 1020.2 |
| 20260503020320 | 43 | 295 | 0.0 | 0.0 | 0.00 | 0.00 | 0.00 | 71 | 1020.0 |
| 20260503015816 | 44 | 295 | 0.0 | 0.0 | 0.00 | 0.00 | 0.00 | 71 | 1019.8 |
| 20260503015313 | 44 | 296 | 0.0 | 0.0 | 0.00 | 0.00 | 0.00 | 71 | 1019.8 |
| 20260503014809 | 45 | 296 | 0.0 | 0.0 | 0.00 | 0.00 | 0.00 | 67 | 1019.8 |
| 20260503014307 | 45 | 296 | 0.0 | 0.0 | 0.00 | 0.00 | 0.00 | 69 | 1019.6 |
| 20260503013804 | 46 | 296 | 0.0 | 0.0 | 0.00 | 0.00 | 0.00 | 63 | 1019.5 |
| 20260503013301 | 46 | 296 | 0.0 | 0.0 | 0.00 | 0.00 | 0.00 | 64 | 1019.7 |
| 20260503012758 | 47 | 296 | 0.0 | 0.0 | 0.00 | 0.00 | 0.00 | 61 | 1019.4 |
| 20260503012255 | 47 | 296 | 0.0 | 0.0 | 0.00 | 0.00 | 0.00 | 56 | 1019.3 |
| 20260503011752 | 48 | 296 | 0.0 | 0.0 | 0.00 | 0.00 | 0.00 | 60 | 1019.2 |
| 20260503011249 | 48 | 296 | 0.0 | 0.0 | 0.00 | 0.00 | 0.00 | 60 | 1019.2 |
| 20260503010745 | 49 | 296 | 0.0 | 0.0 | 0.00 | 0.00 | 0.00 | 55 | 1019.2 |
| 20260503010242 | 49 | 297 | 0.0 | 0.0 | 0.00 | 0.00 | 0.00 | 50 | 1019.0 |
| 20260503005740 | 50 | 297 | 0.0 | 1.0 | 0.00 | 0.00 | 0.00 | 50 | 1019.0 |
| 20260503005237 | 50 | 298 | 1.0 | 1.0 | 0.00 | 0.00 | 0.00 | 49 | 1019.0 |
| 20260503004733 | 50 | 335 | 1.0 | 1.0 | 0.00 | 0.00 | 0.00 | 48 | 1019.0 |
| 20260503004231 | 51 | 295 | 1.0 | 1.0 | 0.00 | 0.00 | 0.00 | 47 | 1019.1 |
| 20260503003728 | 51 | 295 | 1.0 | 1.0 | 0.00 | 0.00 | 0.00 | 46 | 1018.9 |
| 20260503003225 | 51 | 305 | 1.0 | 1.0 | 0.00 | 0.00 | 0.00 | 45 | 1018.8 |
| 20260503002722 | 51 | 292 | 1.0 | 1.0 | 0.00 | 0.00 | 0.00 | 45 | 1018.8 |
| 20260503002219 | 52 | 286 | 1.0 | 1.0 | 0.00 | 0.00 | 0.00 | 45 | 1018.8 |
| 20260503001715 | 52 | 293 | 1.0 | 1.0 | 0.00 | 0.00 | 0.00 | 43 | 1018.5 |
| 20260503001212 | 52 | 330 | 2.0 | 2.0 | 0.00 | 0.00 | 0.00 | 43 | 1018.5 |
| 20260503000710 | 53 | 287 | 1.0 | 1.0 | 0.00 | 0.00 | 0.00 | 43 | 1018.4 |
| 20260503000207 | 53 | 315 | 1.0 | 1.0 | 0.00 | 0.00 | 0.00 | 42 | 1018.3 |
| 20260502235704 | 53 | 295 | 1.0 | 2.0 | 0.00 | 0.00 | 0.00 | 43 | 1018.4 |
| 20260502235201 | 53 | 290 | 1.0 | 2.0 | 0.00 | 0.00 | 0.00 | 43 | 1018.4 |
| 20260502234657 | 54 | 291 | 1.0 | 1.0 | 0.00 | 0.00 | 0.00 | 41 | 1018.3 |
| 20260502234155 | 54 | 291 | 1.0 | 1.0 | 0.00 | 0.00 | 0.00 | 42 | 1018.3 |
| 20260502233650 | 54 | 286 | 1.0 | 1.0 | 0.00 | 0.00 | 0.00 | 41 | 1018.3 |
| 20260502233147 | 55 | 349 | 2.0 | 2.0 | 0.00 | 0.00 | 0.00 | 39 | 1018.4 |
| 20260502232643 | 55 | 279 | 1.0 | 1.0 | 0.00 | 0.00 | 0.00 | 38 | 1018.3 |
| 20260502232141 | 55 | 306 | 2.0 | 2.0 | 0.00 | 0.00 | 0.00 | 38 | 1018.4 |
| 20260502231637 | 55 | 330 | 2.0 | 2.0 | 0.00 | 0.00 | 0.00 | 39 | 1018.4 |
| 20260502231135 | 56 | 358 | 3.0 | 4.0 | 0.00 | 0.00 | 0.00 | 41 | 1018.3 |
| 20260502230633 | 56 | 298 | 2.0 | 2.0 | 0.00 | 0.00 | 0.00 | 39 | 1018.1 |
| 20260502230131 | 56 | 359 | 4.0 | 6.0 | 0.00 | 0.00 | 0.00 | 40 | 1018.2 |
| 20260502225626 | 56 | 280 | 1.0 | 1.0 | 0.00 | 0.00 | 0.00 | 37 | 1018.2 |
| 20260502225125 | 57 | 332 | 6.0 | 8.0 | 0.00 | 0.00 | 0.00 | 37 | 1018.2 |
| 20260502224620 | 57 | 292 | 1.0 | 2.0 | 0.00 | 0.00 | 0.00 | 40 | 1018.1 |
| 20260502224117 | 57 | 1 | 2.0 | 3.0 | 0.00 | 0.00 | 0.00 | 39 | 1017.9 |
| 20260502223615 | 57 | 262 | 2.0 | 3.0 | 0.00 | 0.00 | 0.00 | 40 | 1018.1 |
| 20260502223113 | 57 | 318 | 1.0 | 2.0 | 0.00 | 0.00 | 0.00 | 38 | 1017.9 |
| 20260502222610 | 57 | 315 | 3.0 | 3.0 | 0.00 | 0.00 | 0.00 | 38 | 1018.0 |
| 20260502222106 | 57 | 359 | 4.0 | 4.0 | 0.00 | 0.00 | 0.00 | 40 | 1018.0 |
| 20260502221602 | 57 | 290 | 2.0 | 2.0 | 0.00 | 0.00 | 0.00 | 42 | 1018.1 |
| 20260502221100 | 57 | 279 | 1.0 | 2.0 | 0.00 | 0.00 | 0.00 | 43 | 1017.9 |
| 20260502220555 | 57 | 341 | 1.0 | 1.0 | 0.00 | 0.00 | 0.00 | 39 | 1017.9 |
| 20260502220052 | 57 | 276 | 2.0 | 2.0 | 0.00 | 0.00 | 0.00 | 41 | 1017.9 |
| 20260502215549 | 56 | 284 | 1.0 | 2.0 | 0.00 | 0.00 | 0.00 | 42 | 1018.0 |
| 20260502215046 | 57 | 336 | 2.0 | 3.0 | 0.00 | 0.00 | 0.00 | 43 | 1017.9 |
| 20260502214543 | 56 | 287 | 2.0 | 2.0 | 0.00 | 0.00 | 0.00 | 42 | 1017.8 |
| 20260502214041 | 56 | 298 | 3.0 | 4.0 | 0.00 | 0.00 | 0.00 | 42 | 1017.9 |
| 20260502213537 | 57 | 293 | 1.0 | 1.0 | 0.00 | 0.00 | 0.00 | 41 | 1017.9 |
| 20260502213035 | 57 | 248 | 1.0 | 1.0 | 0.00 | 0.00 | 0.00 | 45 | 1017.7 |
| 20260502212534 | 56 | 251 | 0.0 | 0.0 | 0.00 | 0.00 | 0.00 | 47 | 1017.9 |
| 20260502212031 | 55 | 280 | 2.0 | 2.0 | 0.00 | 0.00 | 0.00 | 47 | 1017.8 |
| 20260502211526 | 55 | 258 | 0.0 | 0.0 | 0.00 | 0.00 | 0.00 | 50 | 1018.0 |
| 20260502211024 | 56 | 280 | 0.0 | 1.0 | 0.00 | 0.00 | 0.00 | 49 | 1018.2 |
| 20260502210521 | 56 | 280 | 0.0 | 0.0 | 0.00 | 0.00 | 0.00 | 48 | 1018.1 |
| 20260502210018 | 56 | 281 | 1.0 | 1.0 | 0.00 | 0.00 | 0.00 | 46 | 1018.2 |
| 20260502205514 | 56 | 277 | 0.0 | 0.0 | 0.00 | 0.00 | 0.00 | 46 | 1018.1 |
| 20260502205012 | 56 | 280 | 1.0 | 1.0 | 0.00 | 0.00 | 0.00 | 49 | 1018.1 |
| 20260502204508 | 56 | 318 | 2.0 | 2.0 | 0.00 | 0.00 | 0.00 | 47 | 1018.2 |
| 20260502204006 | 56 | 271 | 0.0 | 0.0 | 0.00 | 0.00 | 0.00 | 49 | 1018.1 |
| 20260502203503 | 55 | 264 | 0.0 | 0.0 | 0.00 | 0.00 | 0.00 | 49 | 1018.4 |
| 20260502203000 | 55 | 267 | 0.0 | 0.0 | 0.00 | 0.00 | 0.00 | 48 | 1018.3 |
| 20260502202456 | 55 | 283 | 1.0 | 1.0 | 0.00 | 0.00 | 0.00 | 46 | 1018.2 |
| 20260502201955 | 55 | 31 | 1.0 | 2.0 | 0.00 | 0.00 | 0.00 | 48 | 1018.4 |
| 20260502201450 | 54 | 308 | 2.0 | 2.0 | 0.00 | 0.00 | 0.00 | 50 | 1018.4 |
| 20260502200947 | 54 | 287 | 1.0 | 1.0 | 0.00 | 0.00 | 0.00 | 48 | 1018.5 |
| 20260502200443 | 54 | 345 | 2.0 | 2.0 | 0.00 | 0.00 | 0.00 | 49 | 1018.5 |
| 20260502195940 | 54 | 309 | 2.0 | 2.0 | 0.00 | 0.00 | 0.00 | 52 | 1018.5 |
| 20260502195437 | 55 | 282 | 0.0 | 0.0 | 0.00 | 0.00 | 0.00 | 53 | 1018.5 |
| 20260502194934 | 55 | 23 | 3.0 | 3.0 | 0.00 | 0.00 | 0.00 | 48 | 1018.5 |
| 20260502194431 | 56 | 275 | 1.0 | 1.0 | 0.00 | 0.00 | 0.00 | 49 | 1018.5 |
| 20260502193926 | 56 | 295 | 2.0 | 2.0 | 0.00 | 0.00 | 0.00 | 49 | 1018.4 |
| 20260502193424 | 56 | 273 | 0.0 | 1.0 | 0.00 | 0.00 | 0.00 | 51 | 1018.7 |
| 20260502192919 | 56 | 308 | 1.0 | 1.0 | 0.00 | 0.00 | 0.00 | 48 | 1018.7 |
| 20260502192416 | 56 | 0 | 2.0 | 2.0 | 0.00 | 0.00 | 0.00 | 49 | 1018.7 |
| 20260502191914 | 55 | 306 | 1.0 | 1.0 | 0.00 | 0.00 | 0.00 | 52 | 1018.7 |
| 20260502191411 | 54 | 254 | 0.0 | 0.0 | 0.00 | 0.00 | 0.00 | 51 | 1018.8 |
| 20260502190909 | 54 | 286 | 1.0 | 1.0 | 0.00 | 0.00 | 0.00 | 52 | 1018.9 |
| 20260502190406 | 54 | 292 | 0.0 | 1.0 | 0.00 | 0.00 | 0.00 | 51 | 1019.0 |
| 20260502185901 | 54 | 292 | 1.0 | 1.0 | 0.00 | 0.00 | 0.00 | 54 | 1018.8 |
| 20260502185357 | 54 | 286 | 0.0 | 1.0 | 0.00 | 0.00 | 0.00 | 54 | 1018.8 |
| 20260502184855 | 54 | 276 | 0.0 | 0.0 | 0.00 | 0.00 | 0.00 | 53 | 1018.9 |
| 20260502184350 | 55 | 282 | 0.0 | 1.0 | 0.00 | 0.00 | 0.00 | 55 | 1018.9 |
| 20260502183847 | 55 | 323 | 1.0 | 2.0 | 0.00 | 0.00 | 0.00 | 50 | 1018.7 |
| 20260502183343 | 56 | 283 | 1.0 | 1.0 | 0.00 | 0.00 | 0.00 | 50 | 1019.0 |
| 20260502182838 | 56 | 296 | 1.0 | 1.0 | 0.00 | 0.00 | 0.00 | 49 | 1019.0 |
| 20260502182334 | 57 | 286 | 1.0 | 1.0 | 0.00 | 0.00 | 0.00 | 49 | 1018.8 |
| 20260502181831 | 57 | 246 | 0.0 | 0.0 | 0.00 | 0.00 | 0.00 | 47 | 1018.9 |
| 20260502181330 | 56 | 336 | 1.0 | 1.0 | 0.00 | 0.00 | 0.00 | 53 | 1019.1 |
| 20260502180827 | 55 | 318 | 1.0 | 2.0 | 0.00 | 0.00 | 0.00 | 51 | 1019.2 |
| 20260502180324 | 55 | 270 | 1.0 | 1.0 | 0.00 | 0.00 | 0.00 | 52 | 1019.1 |